Location: Burbank
(38.7788°N, 114.0429°W)
Time: 06:23:43
(UTC+00:00)

Explorer 7 - Pass Details

Date: 19 May 2026
Orbit: 426 x 534 km, 50.2° (Epoch: 8 June)

Event Time Altitude Azimuth Distance (km) Brightness Sun altitude
Exits shadow 10:50:10 33° 244° (WSW) 755 7.0 -15.4°
Maximum altitude 10:51:35 76° 325° (NW) 460 6.4 -15.2°
Drops below altitude 10° 10:55:09 10° 51° (NE) 1,590 10.6 -14.6°
Sets 10:57:21 0° 53° (NE) 2,485 12.1 -14.3°
